[[{"header":{"parameterUnit":"m.s-1","parameterCategory":1,"la1":30.2991,"la2":30.254,"lo1":-89.0895,"lo2":-89.0444,"dy":0.0017,"dx":0.0017,"nx":28,"ny":28,"refTime":"2025-08-22T09:00:00:Z","depth":0,"parameterNumber":2,"parameterNumberName":"U-component_of_WINDS"},"data":[0,0,0,0,0,0,0,0,0,0,0,0,0,0,0,0,0,0,0,0,0,0,0,0,0,0,0,0,0,0,0,0,0,0,0,0,0,0,0,0,0,0,0,0,0,0,0,0,0,0,0,0,0,0,0,0,0,0,2.1861,2.1862,0,2.1904,2.1904,2.1905,2.1881,2.188,2.1879,2.1878,2.1921,2.1923,2.1925,0,0,0,0,0,0,0,0,0,0,0,0,0,2.1759,2.1761,2.1861,2.1862,2.1863,2.1904,2.1904,2.1905,2.1882,2.188,2.1879,2.1877,2.192,2.1923,2.1926,0,0,0,0,0,0,0,0,0,0,0,0,0,2.1803,2.1762,2.1861,2.1856,2.1856,2.1904,2.1904,2.1905,2.1882,2.188,2.1878,2.1877,2.1919,2.1923,2.1926,2.1981,0,0,2.1936,2.1938,0,0,0,0,0,0,0,0,2.18,2.1806,2.1856,2.1856,2.1856,2.1885,2.1884,2.1931,2.1882,2.1872,2.1878,2.1876,2.1911,2.1915,2.1926,2.1983,2.1985,2.1937,2.1939,2.194,2.1941,0,0,0,0,0,0,0,2.1797,2.1804,2.1878,2.1857,2.1857,2.1851,2.1855,2.1893,2.1901,2.1873,2.1871,2.1876,2.191,2.1923,2.1927,2.1986,2.1936,2.1939,2.1941,2.1943,2.2088,2.2089,0,0,0,0,0,0,2.1795,2.1802,2.1877,2.1879,2.1823,2.1854,2.1859,2.1878,2.19,2.1902,2.1878,2.1875,2.1918,2.1923,2.1929,2.1993,2.194,2.1943,2.1945,2.2086,2.2088,2.209,0,0,0,0,0,0,2.1793,2.1802,2.1875,2.184,2.1849,2.1858,2.1879,2.188,2.1892,2.1904,2.1905,2.189,2.1917,2.1924,2.1968,2.1994,2.1945,2.1948,2.2084,2.2086,2.2089,2.2123,0,0,0,0,0,0,2.179,2.1801,2.1823,2.1841,2.1851,2.1914,2.1881,2.1882,2.1898,2.1895,2.1915,2.1917,2.1916,2.1963,2.1971,2.1998,2.195,2.2081,2.2085,2.2088,2.2119,2.2126,2.2132,0,0,0,0,0,2.1786,2.1831,2.1824,2.1833,2.1879,2.1916,2.1922,2.192,2.1901,2.1922,2.1929,2.1916,2.199,2.1968,2.1977,2.2005,2.208,2.2084,2.2088,2.2116,2.2125,2.2132,0,0,0,0,0,0,2.1816,2.1834,2.1826,2.1878,2.1896,2.1912,2.1939,2.193,2.1953,2.1949,2.1946,2.1951,2.1996,2.2005,2.198,2.2058,2.2032,2.2038,2.205,2.2058,2.2065,2.2061,2.1953,0,0,0,0,0,2.1829,2.1858,2.1872,2.1916,2.1926,2.1931,2.1947,2.1944,2.1962,2.1969,2.198,2.1998,2.2024,2.2042,2.2068,2.2121,2.2123,2.2144,2.2151,2.2156,2.2161,2.2187,2.2195,2.2104,2.2103,2.2103,0,0,2.1856,2.1869,2.1887,2.1923,2.1936,2.1965,2.1937,2.197,2.1991,2.1974,2.2016,2.2024,2.2043,2.2091,2.2113,2.21,2.2187,2.2161,2.2165,2.2167,2.2192,2.2201,2.2208,2.2106,2.2106,2.2105,0,0,2.1919,2.1932,2.197,2.1983,2.2003,2.2006,2.2015,2.2032,2.2037,2.2078,2.2065,2.209,2.2138,2.2151,2.2164,2.223,2.2218,2.2238,2.2272,2.2297,2.2304,2.2311,2.2332,2.234,2.2244,2.2244,2.2244,0,2.1949,2.1993,2.199,2.2023,2.2038,2.2024,2.2061,2.2074,2.2101,2.2112,2.2097,2.2154,2.2166,2.2216,2.2231,2.2244,2.2252,2.2236,2.2304,2.231,2.2316,2.2336,2.2344,2.2246,2.2246,2.2245,2.2245,0,2.2028,2.2059,2.2087,2.2112,2.2131,2.2166,2.2167,2.2186,2.2181,2.2185,2.2226,2.224,2.2267,2.2279,2.2275,2.2327,2.2318,2.2304,2.2277,2.2327,2.2345,2.2353,2.2249,2.2248,2.2247,2.2247,0,0,2.2112,2.2134,2.2144,2.2155,2.2175,2.2198,2.2231,2.2257,2.2272,2.2291,2.2318,2.2357,2.2343,2.2358,2.2355,2.2378,2.2426,2.236,2.236,2.237,2.2481,2.2491,2.25,2.2419,2.242,2.2421,2.2479,0,2.2175,2.2233,2.223,2.2285,2.2311,2.2297,2.2326,2.234,2.2345,2.2367,2.2372,2.2399,2.238,2.2388,2.241,2.2415,2.2448,2.2411,2.2442,2.2443,2.2436,2.251,2.2521,2.2574,2.2486,2.2488,2.2489,0,2.2256,2.2276,2.2333,2.2346,2.2357,2.2383,2.2405,2.2428,2.2443,2.2445,2.246,2.2453,2.2486,2.2459,2.2502,2.2478,2.249,2.2495,2.2497,2.2498,2.2468,2.2511,2.2592,2.2599,2.2501,2.25,2.2499,0,2.2308,2.235,2.2388,2.2398,2.2415,2.2433,2.2442,2.2456,2.247,2.249,2.2499,2.2522,2.2534,2.2552,2.2551,2.2532,2.2594,2.2568,2.2595,2.2594,2.2607,2.2606,2.2689,2.2619,2.2619,2.2618,2.2618,0,2.2378,2.2412,2.2412,2.2435,2.2473,2.2469,2.2506,2.2512,2.2525,2.2548,2.2538,2.256,2.2558,2.258,2.2579,2.2614,2.262,2.2621,2.262,2.2621,2.2621,2.2628,2.2624,2.262,2.262,2.262,2.2619,0,2.2443,2.2444,2.2484,2.2497,2.25,2.2527,2.2538,2.2559,2.2562,2.2592,2.2598,2.2603,2.2628,2.2628,2.2658,2.2657,2.2699,2.2695,2.2693,2.2692,2.2718,2.2714,2.2806,2.2817,2.2742,2.2743,2.2743,0,2.2486,2.2512,2.2526,2.2541,2.2549,2.2574,2.2588,2.2585,2.26,2.2619,2.2638,2.2662,2.2681,2.2721,2.2727,2.2749,2.2744,2.2774,2.2747,2.2746,2.2741,2.2739,2.274,2.2779,2.278,2.2781,2.2781,0,2.2562,2.2561,2.2582,2.2602,2.262,2.2636,2.2651,2.2664,2.2662,2.268,2.2705,2.2719,2.2748,2.2772,2.2792,2.28,2.279,2.279,2.2797,2.2797,2.2794,2.2794,2.2706,2.2788,2.2787,2.2786,2.2786,2.2786,2.2616,2.2637,2.265,2.2673,2.2684,2.2697,2.2717,2.2722,2.2742,2.2765,2.2762,2.2789,2.2802,2.2829,2.2838,2.2859,2.2848,2.2859,2.2861,2.2863,2.2865,2.2792,2.2863,2.2862,2.2862,2.2862,2.2862,0,2.2689,2.2696,2.2718,2.2738,2.2756,2.2744,2.276,2.2775,2.2799,2.2812,2.283,2.2858,2.288,2.2886,2.2907,2.2922,2.2918,2.2927,2.2925,2.2927,2.2874,2.2865,2.293,2.293,2.293,2.293,2.293,2.293,2.273,2.2764,2.2764,2.2802,2.2809,2.2835,2.2845,2.2857,2.2866,2.2897,2.2915,2.2919,2.2928,2.2949,2.2968,2.297,2.2977,2.2988,2.2987,2.2938,2.2931,2.2924,2.2915,2.299,2.299,2.3038,2.3038,2.3038]},{"header":{"parameterUnit":"m.s-1","parameterCategory":1,"la1":30.2991,"la2":30.254,"lo1":-89.0895,"lo2":-89.0444,"dy":0.0017,"dx":0.0017,"nx":28,"ny":28,"refTime":"2025-08-22T09:00:00:Z","depth":0,"parameterNumber":3,"parameterNumberName":"V-component_of_WINDS"},"data":[0,0,0,0,0,0,0,0,0,0,0,0,0,0,0,0,0,0,0,0,0,0,0,0,0,0,0,0,0,0,0,0,0,0,0,0,0,0,0,0,0,0,0,0,0,0,0,0,0,0,0,0,0,0,0,0,0,0,-0.5902,-0.5901,0,-0.5824,-0.5823,-0.5822,-0.5779,-0.5779,-0.5779,-0.5779,-0.5694,-0.5692,-0.5689,0,0,0,0,0,0,0,0,0,0,0,0,0,-0.6012,-0.601,-0.5902,-0.5901,-0.59,-0.5824,-0.5823,-0.5822,-0.5779,-0.5779,-0.5779,-0.5779,-0.5694,-0.5692,-0.5689,0,0,0,0,0,0,0,0,0,0,0,0,0,-0.5952,-0.6009,-0.5903,-0.587,-0.5867,-0.5824,-0.5823,-0.5821,-0.578,-0.5779,-0.5779,-0.5779,-0.5695,-0.5692,-0.5689,-0.5671,0,0,-0.5679,-0.5677,0,0,0,0,0,0,0,0,-0.5955,-0.5948,-0.5876,-0.5872,-0.5868,-0.5811,-0.583,-0.5771,-0.578,-0.5812,-0.5779,-0.5779,-0.5733,-0.5726,-0.5712,-0.5667,-0.5663,-0.5678,-0.5676,-0.5675,-0.5674,0,0,0,0,0,0,0,-0.5959,-0.5951,-0.5871,-0.5875,-0.587,-0.5858,-0.585,-0.5819,-0.5774,-0.581,-0.5806,-0.5798,-0.573,-0.5715,-0.5709,-0.5662,-0.5679,-0.5676,-0.5674,-0.5672,-0.5599,-0.5599,0,0,0,0,0,0,-0.5969,-0.5954,-0.5874,-0.5869,-0.5912,-0.5856,-0.5847,-0.583,-0.5774,-0.5766,-0.5798,-0.5796,-0.5721,-0.5713,-0.5706,-0.5682,-0.5675,-0.5672,-0.567,-0.5599,-0.5599,-0.5599,0,0,0,0,0,0,-0.5972,-0.5962,-0.5877,-0.5911,-0.5899,-0.5855,-0.5836,-0.5828,-0.5813,-0.5766,-0.5757,-0.5791,-0.572,-0.5711,-0.5681,-0.5678,-0.5671,-0.5668,-0.5599,-0.5599,-0.5599,-0.5633,0,0,0,0,0,0,-0.5975,-0.5964,-0.5957,-0.5911,-0.5897,-0.5854,-0.5836,-0.5827,-0.5808,-0.5805,-0.5756,-0.5748,-0.5719,-0.5686,-0.5677,-0.5674,-0.5665,-0.5599,-0.5599,-0.5599,-0.5632,-0.5634,-0.5636,0,0,0,0,0,-0.5979,-0.5969,-0.5957,-0.5948,-0.5889,-0.5854,-0.5846,-0.5814,-0.5808,-0.58,-0.577,-0.575,-0.568,-0.5683,-0.5673,-0.5668,-0.5599,-0.5599,-0.5599,-0.5631,-0.5634,-0.5636,0,0,0,0,0,0,-0.6014,-0.5962,-0.5949,-0.5923,-0.5894,-0.5847,-0.5836,-0.5818,-0.5788,-0.5786,-0.5747,-0.5736,-0.571,-0.5686,-0.569,-0.5648,-0.5637,-0.5635,-0.5665,-0.5667,-0.5669,-0.5675,-0.5662,0,0,0,0,0,-0.6019,-0.5997,-0.5952,-0.5934,-0.592,-0.5881,-0.5864,-0.5843,-0.581,-0.5796,-0.5764,-0.5731,-0.5702,-0.5683,-0.5654,-0.5629,-0.5617,-0.562,-0.5623,-0.5625,-0.5623,-0.5608,-0.5609,-0.5599,-0.5599,-0.5599,0,0,-0.6029,-0.5998,-0.5985,-0.594,-0.5914,-0.5891,-0.587,-0.5846,-0.5827,-0.5792,-0.5762,-0.5737,-0.5698,-0.5671,-0.5657,-0.565,-0.5624,-0.5625,-0.5627,-0.5624,-0.5609,-0.5609,-0.561,-0.5599,-0.5599,-0.5599,0,0,-0.6034,-0.6009,-0.5991,-0.5966,-0.5928,-0.5903,-0.5899,-0.5855,-0.5838,-0.5807,-0.5781,-0.5757,-0.5708,-0.5681,-0.5661,-0.5658,-0.5638,-0.5649,-0.566,-0.5646,-0.5647,-0.5647,-0.5646,-0.5646,-0.5648,-0.5648,-0.5648,0,-0.605,-0.6015,-0.5984,-0.5961,-0.5942,-0.5911,-0.5892,-0.5869,-0.5823,-0.5809,-0.5803,-0.5741,-0.5712,-0.5678,-0.5678,-0.5663,-0.5656,-0.5654,-0.565,-0.565,-0.565,-0.5648,-0.5648,-0.565,-0.565,-0.5649,-0.5649,0,-0.6036,-0.6012,-0.6002,-0.5961,-0.594,-0.592,-0.5884,-0.5867,-0.5848,-0.5823,-0.5792,-0.5757,-0.572,-0.5711,-0.569,-0.5674,-0.5671,-0.5658,-0.5645,-0.5653,-0.5651,-0.565,-0.5652,-0.5652,-0.5651,-0.5651,0,0,-0.606,-0.6003,-0.6,-0.5981,-0.5938,-0.5917,-0.5895,-0.5861,-0.5847,-0.5816,-0.5796,-0.5756,-0.5744,-0.5721,-0.5698,-0.5686,-0.5686,-0.5674,-0.5672,-0.5677,-0.5665,-0.5675,-0.5675,-0.5673,-0.5672,-0.5672,-0.5668,0,-0.6059,-0.602,-0.5992,-0.5963,-0.594,-0.591,-0.5891,-0.5862,-0.5838,-0.5814,-0.5787,-0.5759,-0.5745,-0.5732,-0.5718,-0.5689,-0.5683,-0.5689,-0.5652,-0.5652,-0.5663,-0.5674,-0.5684,-0.5682,-0.5667,-0.5667,-0.5667,0,-0.6053,-0.6025,-0.5994,-0.5954,-0.5943,-0.5927,-0.5893,-0.5871,-0.5837,-0.5821,-0.5797,-0.5773,-0.5748,-0.5739,-0.5703,-0.5708,-0.5691,-0.5674,-0.5673,-0.5668,-0.5659,-0.5668,-0.568,-0.568,-0.5665,-0.5665,-0.5665,0,-0.6073,-0.6028,-0.6004,-0.5989,-0.5941,-0.593,-0.591,-0.5876,-0.5857,-0.5828,-0.5815,-0.5782,-0.5764,-0.5739,-0.5707,-0.5704,-0.5674,-0.5663,-0.5659,-0.566,-0.5653,-0.5654,-0.5663,-0.5644,-0.5644,-0.5644,-0.5644,0,-0.6075,-0.6057,-0.6013,-0.5998,-0.5977,-0.5945,-0.5924,-0.5901,-0.5871,-0.5851,-0.5823,-0.5804,-0.5763,-0.5739,-0.5714,-0.5687,-0.5679,-0.5665,-0.5658,-0.5667,-0.5669,-0.5655,-0.5654,-0.5644,-0.5644,-0.5644,-0.5644,0,-0.6094,-0.6064,-0.6036,-0.5994,-0.5983,-0.5969,-0.5932,-0.5916,-0.5892,-0.5866,-0.5858,-0.5819,-0.5789,-0.5755,-0.5713,-0.5696,-0.5672,-0.5662,-0.5684,-0.568,-0.5678,-0.5679,-0.5678,-0.5676,-0.5659,-0.5659,-0.5659,0,-0.6097,-0.6083,-0.604,-0.6025,-0.6006,-0.5981,-0.5963,-0.593,-0.5912,-0.5873,-0.5861,-0.583,-0.5803,-0.5756,-0.5723,-0.5691,-0.5681,-0.5682,-0.5675,-0.5685,-0.568,-0.5682,-0.568,-0.5684,-0.5685,-0.5685,-0.5685,0,-0.6105,-0.6091,-0.6066,-0.6036,-0.6016,-0.599,-0.5963,-0.5952,-0.5914,-0.5895,-0.5865,-0.5844,-0.5803,-0.5771,-0.5736,-0.5713,-0.5692,-0.5688,-0.5685,-0.5694,-0.5707,-0.57,-0.5689,-0.5688,-0.5687,-0.5687,-0.5687,-0.5687,-0.6115,-0.6102,-0.607,-0.6043,-0.602,-0.5996,-0.5979,-0.5953,-0.5928,-0.5893,-0.5875,-0.5846,-0.5812,-0.5762,-0.574,-0.5716,-0.5709,-0.5705,-0.5704,-0.5704,-0.5707,-0.5712,-0.5709,-0.5709,-0.5709,-0.5709,-0.5709,0,-0.6122,-0.6101,-0.6077,-0.6041,-0.602,-0.6005,-0.5974,-0.5957,-0.5932,-0.5903,-0.5878,-0.5844,-0.5814,-0.5779,-0.5747,-0.5734,-0.5724,-0.5726,-0.5727,-0.5722,-0.5714,-0.572,-0.5735,-0.5735,-0.5735,-0.5735,-0.5735,-0.5735,-0.6123,-0.6099,-0.6082,-0.6046,-0.6024,-0.5996,-0.5981,-0.5958,-0.5935,-0.5899,-0.5874,-0.5852,-0.5821,-0.5786,-0.5758,-0.5748,-0.5737,-0.5743,-0.5731,-0.5724,-0.5722,-0.572,-0.5725,-0.5741,-0.5741,-0.574,-0.574,-0.574]}]]